sat.trackr.live / text

‹ back to catalog

STARLINK-36301

NORAD 67932 · 2026-037A

PAYLOAD ACTIVE UNKNOWN

§ Identity

Operator
Country
US
Launch date
2026-02-24
Launch site
AFETR
Launch vehicle
Mass (kg)
RCS (m²)

Purposes: comms

External: N2YO · Heavens-Above · Gunter

§ Orbital elements

Epoch: 2026-09-19T11:32:43.078560Z

Period
94.27 min
Inclination
43.0022°
Eccentricity
0.0001253
Mean motion
15.27588492 rev/d
Perigee alt
482.2 km
Apogee alt
483.9 km
Semi-major
6,861.2 km
B*
4.3432e-4
RAAN
176.7183°
Arg perigee
268.2895°
Mean anomaly
91.7813°
Rev number
3,297

§ Raw data

STARLINK-363011 67932U 26037A   26262.48105415  .00011712  00000+0  43432-3 0  99912 67932  43.0022 176.7183 0001253 268.2895  91.7813 15.27588492 32975

JSON: /api/v1/satellites/67932 · /tle

For live sub-satellite position, see the globe view (requires WebGL).

§ Visibility from observer

Set your observer location to see the next 7 days of passes ≥ 10°. The values pass through the URL so the page stays shareable.

No JS? Fill the form by hand. The geolocation button needs JavaScript.